Weather reports worldwide

Advertisment
Greifswalder Oie, Germany (10097): temperature & dewpoint: 20.03.2019 08:00:00 - 26.03.2019 08:00:00 (CET)Greifswalder Oie, Germany (10097): temperature 5cm & temperature -5cm: 20.03.2019 08:00:00 - 26.03.2019 08:00:00 (CET)Greifswalder Oie, Germany (10097): temperature -20cm & temperature -100cm: 20.03.2019 08:00:00 - 26.03.2019 08:00:00 (CET)Greifswalder Oie, Germany (10097): water temperature: 20.03.2019 08:00:00 - 26.03.2019 08:00:00 (CET)Greifswalder Oie, Germany (10097): wind speed & gusts: 20.03.2019 08:00:00 - 26.03.2019 08:00:00 (CET)Greifswalder Oie, Germany (10097): wind direction: 20.03.2019 08:00:00 - 26.03.2019 08:00:00 (CET)Greifswalder Oie, Germany (10097): reduced air pressure: 20.03.2019 08:00:00 - 26.03.2019 08:00:00 (CET)Greifswalder Oie, Germany (10097): visibility: 20.03.2019 08:00:00 - 26.03.2019 08:00:00 (CET)Greifswalder Oie, Germany (10097): sunshine duration: 20.03.2019 08:00:00 - 26.03.2019 08:00:00 (CET)Greifswalder Oie, Germany (10097): precipitation: 20.03.2019 08:00:00 - 26.03.2019 08:00:00 (CET)
Date & Time tt [°C] td [°C] tt 5cm [°C] tt -5cm [°C] tt -20cm [°C] tt -100cm [°C] tw [°C] ff [km/h] ff [kn] fx [km/h] fx [kn] dd ppp [hPa] vv [km] sd [min] rr [mm]
26.03.2019 08:00:00 4,9 1,4 4,8 4,0 4,9 6,6 4,8 45 25 63 34 WNW 1018,7 27 2 0,0
26.03.2019 07:00:00 4,4 1,7 4,2 3,8 4,9 6,6 4,8 48 26 69 38 WNW 1018,7 26 0 0,0
26.03.2019 06:00:00 4,5 1,8 4,3 3,7 4,9 6,6 4,8 53 29 68 37 WNW 1018,4 28 0 0,0
26.03.2019 05:00:00 4,6 2,4 4,3 3,7 4,9 6,6 4,9 53 29 67 36 W 1018,6 27 0 0,0
26.03.2019 04:00:00 4,1 3,0 3,2 3,4 5,0 6,6 5,2 34 18 41 22 WSW 1019,1 18 0 0,0
26.03.2019 03:00:00 4,3 2,9 3,6 3,5 5,1 6,6 5,2 32 17 41 22 W 1019,9 30 0 0,0
26.03.2019 02:00:00 4,3 2,8 3,7 3,5 5,2 6,6 5,3 36 20 43 23 WNW 1020,2 40 0 0,0
26.03.2019 01:00:00 3,9 2,6 3,2 3,3 5,3 6,7 5,4 31 17 38 20 WNW 1020,4 37 0 0,0
26.03.2019 00:00:00 4,0 2,8 3,3 3,6 5,4 6,7 5,4 29 15 36 19 WNW 1020,5 34 0 0,0
25.03.2019 23:00:00 4,1 2,9 3,3 3,7 5,5 6,7 5,6 25 14 29 16 NW 1020,1 45 0 0,0
25.03.2019 22:00:00 4,4 3,0 3,7 3,8 5,7 6,7 5,6 23 13 27 15 WNW 1019,9 22 0 0,0
25.03.2019 21:00:00 4,6 3,0 3,6 3,9 5,9 6,7 5,6 18 10 23 12 W 1019,4 15 0 0,0
25.03.2019 20:00:00 3,9 2,4 3,0 3,9 6,1 6,7 5,7 16 9 29 15 WNW 1019,0 21 0 0,0
25.03.2019 19:00:00 3,9 2,5 2,7 4,6 6,3 6,7 5,7 24 13 32 17 NNW 1018,3 13 7 0,0
25.03.2019 18:00:00 4,3 2,2 3,9 5,8 6,4 6,7 5,7 25 14 34 18 N 1016,9 25 60 0,0
25.03.2019 17:00:00 4,8 2,6 5,8 6,7 6,4 6,7 5,6 21 12 40 21 N 1015,8 70 11 0,0
25.03.2019 16:00:00 5,1 2,4 6,4 7,2 6,3 6,7 5,6 35 19 46 25 NNW 1014,4 43 1 0,0
25.03.2019 15:00:00 5,3 3,5 6,3 7,2 6,1 6,7 5,6 34 19 46 25 NNW 1013,0 54 0 0,0
25.03.2019 14:00:00 5,7 2,9 6,2 7,9 5,8 6,7 5,6 39 21 47 26 NNW 1012,3 18 4 0,0
25.03.2019 13:00:00 6,3 2,9 7,2 6,6 5,6 6,7 5,5 34 18 44 24 NW 1011,6 45 1 0,0
25.03.2019 12:00:00 6,3 3,2 6,7 6,0 5,4 6,7 5,5 36 19 46 25 NW 1010,8 46 0 0,0
25.03.2019 11:00:00 5,3 2,7 5,2 5,3 5,2 6,7 5,5 38 20 46 25 NW 1010,0 37 0 0,0
25.03.2019 10:00:00 4,8 2,9 4,4 4,6 5,2 6,7 5,5 37 20 46 25 WNW 1009,1 33 0 0,0
25.03.2019 09:00:00 3,2 2,2 3,2 3,9 5,2 6,7 5,4 29 16 45 24 WNW 1008,8 47 0 0,1
25.03.2019 08:00:00 3,4 2,0 3,0 3,6 5,3 6,7 5,4 39 21 46 25 W 1008,2 24 0 0,5
25.03.2019 07:00:00 2,7 1,4 2,4 3,5 5,4 6,6 5,4 34 18 51 28 SSW 1008,4 23 0 1,0
25.03.2019 06:00:00 4,0 1,0 3,4 3,6 5,5 6,6 5,5 36 20 45 24 SW 1008,9 15 0 0,0
25.03.2019 05:00:00 4,2 1,0 3,9 3,5 5,6 6,6 5,6 29 16 41 22 SSW 1009,8 33 0 0,0
25.03.2019 04:00:00 4,0 1,0 3,4 3,5 5,8 6,6 5,7 33 18 39 21 SW 1011,1 34 0 0,0
25.03.2019 03:00:00 4,2 0,9 3,2 3,7 5,9 6,6 5,7 29 16 44 24 SW 1012,1 40 0 0,0
25.03.2019 02:00:00 5,0 1,1 4,0 4,2 6,1 6,6 5,8 32 18 40 21 WSW 1013,5 52 0 0,0
25.03.2019 01:00:00 5,2 1,6 4,8 4,3 6,3 6,6 5,9 29 15 35 19 W 1014,7 38 0 0,0
25.03.2019 00:00:00 5,4 1,5 4,4 4,4 6,5 6,6 6,1 27 15 35 19 WSW 1015,7 38 0 0,0
24.03.2019 23:00:00 5,9 1,9 5,0 4,6 6,7 6,6 6,5 25 14 32 17 W 1016,9 40 0 0,0
24.03.2019 22:00:00 5,9 2,2 4,8 4,8 7,0 6,6 7,0 25 13 31 17 WSW 1017,6 40 0 0,0
24.03.2019 21:00:00 5,9 1,8 4,7 5,1 7,3 6,6 6,6 22 12 26 14 WSW 1018,6 46 0 0,0
24.03.2019 20:00:00 5,9 2,2 4,7 5,6 7,7 6,6 6,6 18 10 29 15 W 1019,4 44 0 0,0
24.03.2019 19:00:00 6,1 0,9 5,3 6,3 8,0 6,6 6,6 26 14 36 19 WNW 1020,1 48 0 0,0
24.03.2019 18:00:00 6,3 2,8 5,7 8,0 8,2 6,6 7,4 19 11 24 13 W 1020,8 36 50 0,0
24.03.2019 17:00:00 6,7 3,0 7,9 10,1 8,1 6,6 7,4 13 7 19 10 W 1021,5 28 44 0,0
24.03.2019 16:00:00 7,8 3,7 10,5 12,3 7,6 6,6 7,4 13 7 15 8 WSW 1022,2 29 59 0,0
24.03.2019 15:00:00 7,9 4,2 11,7 12,3 7,0 6,6 7,1 13 7 16 9 WSW 1023,2 22 60 0,0
24.03.2019 14:00:00 7,6 4,2 12,0 10,8 6,6 6,6 6,7 11 6 16 9 WSW 1023,9 17 51 0,0
24.03.2019 13:00:00 6,3 4,1 8,3 8,3 6,3 6,6 6,4 14 7 22 12 WSW 1024,8 20 0 0,0
24.03.2019 12:00:00 5,5 3,6 6,5 7,9 6,0 6,6 6,2 18 10 22 12 W 1025,8 24 5 0,0
24.03.2019 11:00:00 6,9 4,1 8,1 7,4 5,7 6,6 6,1 15 8 24 13 WNW 1026,0 22 25 0,0
24.03.2019 10:00:00 5,3 3,4 6,0 5,8 5,5 6,6 6,0 16 9 25 14 WNW 1026,7 20 0 0,0
24.03.2019 09:00:00 4,8 3,1 5,0 4,9 5,5 6,6 6,0 22 12 27 15 W 1027,2 20 0 0,0
24.03.2019 08:00:00 4,8 3,2 4,7 4,4 5,5 6,6 6,0 22 12 27 14 WNW 1027,3 20 0 0,0
24.03.2019 07:00:00 4,7 2,8 4,3 4,0 5,6 6,6 6,0 23 13 30 16 W 1027,5 27 0 0,0
24.03.2019 06:00:00 4,6 2,2 4,2 3,9 5,7 6,6 6,0 26 14 29 16 WNW 1027,7 29 0 0,0
24.03.2019 05:00:00 4,7 2,0 4,1 3,9 5,8 6,6 6,0 21 12 25 13 WNW 1027,7 32 0 0,0
24.03.2019 04:00:00 4,8 2,0 4,1 3,9 6,0 6,6 6,1 17 9 25 13 WNW 1028,2 34 0 0,0
24.03.2019 03:00:00 4,7 2,4 3,3 4,0 6,2 6,6 6,1 23 12 32 17 NW 1028,2 34 0 0,0
24.03.2019 02:00:00 4,8 2,7 3,7 4,1 6,4 6,6 6,1 23 12 29 16 NNW 1028,2 34 0 0,0
24.03.2019 01:00:00 4,7 2,4 3,4 4,5 6,6 6,6 6,2 19 10 24 13 NW 1028,2 41 0 0,0
24.03.2019 00:00:00 5,0 3,0 4,1 4,7 6,8 6,6 6,2 22 12 27 14 NW 1028,1 35 0 0,0
23.03.2019 23:00:00 5,3 3,6 4,7 5,2 7,0 6,5 6,2 23 12 27 14 WNW 1028,1 29 0 0,0
23.03.2019 22:00:00 6,1 4,4 5,2 5,7 7,2 6,5 6,2 22 12 26 14 WNW 1028,0 21 0 0,0
23.03.2019 21:00:00 6,4 4,5 5,7 6,0 7,5 6,5 6,3 24 13 27 15 W 1027,7 19 0 0,0
23.03.2019 20:00:00 6,7 4,6 6,0 6,4 7,7 6,5 6,5 23 12 28 15 W 1027,5 20 0 0,0
23.03.2019 19:00:00 7,1 5,1 6,5 7,1 7,9 6,5 6,4 27 14 30 16 W 1027,1 13 0 0,0
23.03.2019 18:00:00 7,3 5,1 6,6 8,0 8,0 6,5 6,5 22 12 26 14 W 1026,8 11 52 0,0
23.03.2019 17:00:00 7,9 5,7 8,1 8,9 7,9 6,5 7,1 23 12 34 18 W 1026,6 7 42 0,0
23.03.2019 16:00:00 7,7 5,5 8,7 10,2 7,7 6,5 6,8 24 13 32 17 W 1026,0 7 59 0,0
23.03.2019 15:00:00 7,2 5,9 8,8 9,8 7,5 6,5 6,3 22 12 29 16 W 1025,9 3,9 31 0,0
23.03.2019 14:00:00 7,2 5,7 8,2 9,5 7,2 6,5 6,2 31 17 35 19 W 1026,2 4,7 41 0,0
23.03.2019 13:00:00 6,7 5,3 8,5 9,2 7,0 6,5 6,1 16 9 30 16 W 1025,6 4,1 11 0,0
23.03.2019 12:00:00 7,0 5,5 7,9 8,3 6,8 6,5 6,0 29 16 36 19 W 1025,3 3,9 24 0,0
23.03.2019 11:00:00 6,3 5,4 7,1 7,4 6,6 6,5 5,8 23 12 39 21 W 1025,3 2,5 0 0,0
23.03.2019 10:00:00 6,7 6,0 6,9 7,2 6,5 6,5 5,8 29 16 34 19 W 1024,8 2,1 0 0,0
23.03.2019 09:00:00 6,7 6,6 7,0 6,8 6,4 6,5 5,7 26 14 32 18 W 1024,4 1,0 0 0,0
23.03.2019 08:00:00 6,2 6,2 6,6 6,2 6,4 6,5 5,8 17 9 23 12 SW 1024,0 0,1 0 0,0
23.03.2019 07:00:00 5,9 5,8 5,9 5,6 6,4 6,4 5,8 21 11 28 15 SSW 1024,3 0,1 0 0,0
23.03.2019 06:00:00 6,1 5,7 5,8 5,0 6,5 6,4 5,7 13 7 19 11 S 1024,2 0,8 0 0,0
23.03.2019 05:00:00 6,0 5,8 4,7 5,1 6,7 6,4 5,8 10 5 19 10 S 1024,6 2,2 0 0,0
23.03.2019 04:00:00 6,2 5,8 5,0 5,4 6,9 6,4 5,8 13 7 21 11 S 1025,1 3,1 0 0,0
23.03.2019 03:00:00 6,8 6,1 5,7 5,7 7,0 6,4 5,8 19 10 22 12 SSW 1025,7 4,4 0 0,0
23.03.2019 02:00:00 7,0 6,2 5,8 6,0 7,2 6,4 5,9 13 7 23 12 S 1026,2 4,7 0 0,0
23.03.2019 01:00:00 7,2 6,2 5,7 6,3 7,3 6,4 5,9 18 10 23 12 SSW 1026,8 5 0 0,0
23.03.2019 00:00:00 7,5 6,2 6,7 6,9 7,4 6,4 6,0 21 11 29 16 SSW 1027,3 6 0 0,0
22.03.2019 23:00:00 8,2 6,6 7,8 7,3 7,4 6,4 6,0 24 13 33 18 SSW 1028,0 6 0 0,0
22.03.2019 22:00:00 7,8 6,5 7,6 7,3 7,5 6,4 6,0 12 7 21 11 S 1028,7 6 0 0,0
22.03.2019 21:00:00 7,6 6,5 7,5 7,3 7,5 6,4 6,0 12 6 23 12 SSE 1029,5 4,6 0 0,0
22.03.2019 20:00:00 7,3 6,4 7,2 7,3 7,6 6,3 5,9 13 7 23 12 SSE 1029,7 8 0 0,0
22.03.2019 19:00:00 6,3 5,7 6,5 7,4 7,7 6,3 5,9 15 8 23 12 SE 1030,2 7 0 0,0
22.03.2019 18:00:00 6,2 5,8 6,4 7,7 7,8 6,3 5,9 18 10 24 13 ESE 1030,5 5 0 0,0
22.03.2019 17:00:00 6,1 5,6 6,7 8,3 7,8 6,3 6,0 15 8 20 11 ESE 1031,2 3,8 0 0,0
22.03.2019 16:00:00 6,6 6,0 7,6 8,7 7,8 6,3 5,9 11 6 17 9 ESE 1031,8 10 0 0,0
22.03.2019 15:00:00 6,7 5,8 8,4 9,1 7,7 6,3 6,0 9 5 12 7 E 1032,4 12 0 0,0
22.03.2019 14:00:00 7,0 5,9 8,7 9,2 7,6 6,3 6,0 6 4 9 5 E 1033,0 16 0 0,0
22.03.2019 13:00:00 7,3 6,0 9,1 9,1 7,4 6,3 5,9 4 2 7 4 E 1033,5 14 0 0,0
22.03.2019 12:00:00 7,2 5,9 8,3 8,7 7,3 6,3 5,9 3 2 11 6 W 1033,6 14 0 0,0
22.03.2019 11:00:00 7,2 6,2 8,1 8,4 7,1 6,3 5,9 10 5 18 10 SSW 1033,8 13 0 0,0
22.03.2019 10:00:00 7,2 6,3 8,0 8,1 7,0 6,3 5,8 8 4 14 8 SSW 1033,9 11 0 0,0
22.03.2019 09:00:00 6,6 6,0 7,3 7,4 7,0 6,2 5,8 10 5 13 7 WSW 1033,7 7 0 0,0
22.03.2019 08:00:00 6,1 6,0 6,4 6,8 7,0 6,2 5,8 10 5 23 12 W 1033,6 4,3 0 0,0
22.03.2019 07:00:00 6,1 5,9 6,2 6,6 7,0 6,2 5,8 19 10 23 13 W 1033,0 1,1 0 0,0
22.03.2019 06:00:00 6,1 5,9 6,1 6,6 7,1 6,2 5,8 19 10 22 12 W 1032,4 0,9 0 0,0
22.03.2019 05:00:00 6,1 5,9 6,1 6,7 7,2 6,2 5,9 17 9 19 10 W 1032,5 0,7 0 0,0
22.03.2019 04:00:00 6,3 5,9 6,2 6,9 7,3 6,2 5,9 16 9 37 20 WNW 1032,6 1,4 0 0,0
22.03.2019 03:00:00 6,6 6,2 6,6 7,1 7,3 6,2 6,0 31 17 39 21 NW 1032,1 2,0 0 0,0
22.03.2019 02:00:00 6,9 6,7 6,9 7,2 7,4 6,2 5,9 27 14 44 24 NW 1031,4 2,3 0 0,0
22.03.2019 01:00:00 7,4 6,6 7,4 7,2 7,5 6,2 5,9 36 19 44 24 W 1030,7 4,2 0 0,0
22.03.2019 00:00:00 7,4 6,5 7,4 7,3 7,5 6,2 5,9 40 21 46 25 W 1030,7 3,9 0 0,0
21.03.2019 23:00:00 7,6 6,7 7,5 7,4 7,6 6,2 5,9 32 18 49 27 W 1030,9 3,1 0 0,0
21.03.2019 22:00:00 7,5 6,4 7,3 7,5 7,8 6,2 6,2 31 17 39 21 W 1030,5 3,7 0 0,0
21.03.2019 21:00:00 8,1 6,6 8,0 7,8 7,9 6,1 6,3 34 18 39 21 W 1030,9 5 0 0,0
21.03.2019 20:00:00 8,1 6,6 8,1 7,9 8,0 6,1 6,6 29 16 35 19 WSW 1030,9 7 0 0,0
21.03.2019 19:00:00 7,6 6,3 7,7 8,2 8,1 6,1 6,5 23 12 32 17 WSW 1030,7 7 0 0,0
21.03.2019 18:00:00 7,6 6,2 7,8 8,7 8,3 6,1 6,4 22 12 35 19 WSW 1030,2 6 0 0,0
21.03.2019 17:00:00 8,0 6,4 8,3 9,3 8,3 6,1 6,5 30 16 42 23 W 1030,2 8 0 0,0
21.03.2019 16:00:00 8,9 6,6 9,3 10,7 8,1 6,1 6,9 37 20 46 25 W 1030,1 6 0 0,0
21.03.2019 15:00:00 9,1 6,7 11,5 12,2 7,7 6,1 6,7 20 11 32 17 WSW 1030,3 7 52 0,0
21.03.2019 14:00:00 9,5 6,8 12,7 11,3 7,4 6,1 6,6 28 15 37 20 WSW 1030,2 5 37 0,0
21.03.2019 13:00:00 9,2 6,8 11,3 10,9 7,0 6,1 6,3 31 17 38 20 WSW 1030,8 6 46 0,0
21.03.2019 12:00:00 8,4 6,5 9,6 9,4 6,7 6,1 6,0 27 15 36 19 WSW 1031,1 6 0 0,0
21.03.2019 11:00:00 8,4 6,7 9,5 9,0 6,4 6,1 5,9 32 18 41 22 WSW 1031,0 5 4 0,0
21.03.2019 10:00:00 8,0 6,4 9,0 8,0 6,2 6,1 5,6 35 19 41 22 WSW 1031,1 4,1 0 0,0
21.03.2019 09:00:00 7,7 6,4 8,2 7,2 6,0 6,1 5,4 31 17 37 20 SW 1030,8 3,9 0 0,0
21.03.2019 08:00:00 7,4 6,3 7,6 6,5 6,0 6,1 5,3 31 17 35 19 SW 1030,7 4,2 0 0,0
21.03.2019 07:00:00 6,8 5,9 6,8 6,1 5,9 6,1 5,3 24 13 32 17 WSW 1030,5 5 0 0,0
21.03.2019 06:00:00 6,7 5,8 6,6 6,0 5,9 6,1 5,3 25 14 32 17 WSW 1030,5 5 0 0,0
21.03.2019 05:00:00 6,5 5,9 6,4 5,9 5,9 6,1 5,3 25 13 33 18 WSW 1030,6 5 0 0,0
21.03.2019 04:00:00 6,3 5,5 6,1 5,8 6,0 6,1 5,3 24 13 40 22 W 1030,7 4,8 0 0,0
21.03.2019 03:00:00 6,5 5,3 6,2 5,7 6,0 6,1 5,3 29 16 35 19 W 1030,9 7 0 0,0
21.03.2019 02:00:00 6,3 5,5 6,0 5,9 6,0 6,1 5,3 21 11 25 13 W 1031,2 5 0 0,0
21.03.2019 01:00:00 6,3 5,5 5,9 5,9 6,1 6,1 5,2 18 10 22 12 W 1031,4 4,6 0 0,0
21.03.2019 00:00:00 6,2 5,5 6,0 6,1 6,1 6,1 5,2 18 10 26 14 W 1031,3 3,0 0 0,0
20.03.2019 23:00:00 6,7 6,1 6,4 6,2 6,1 6,1 5,3 25 13 29 16 WNW 1030,7 4,0 0 0,0
20.03.2019 22:00:00 6,5 6,2 6,3 6,3 6,1 6,1 5,3 22 12 26 14 W 1030,5 2,1 0 0,2
20.03.2019 21:00:00 6,5 6,2 6,4 6,4 6,1 6,1 5,4 25 14 33 18 W 1030,4 0,6 0 0,0
20.03.2019 20:00:00 6,7 6,4 6,6 6,4 6,1 6,1 5,5 28 15 31 17 WSW 1029,8 1,2 0 0,1
20.03.2019 19:00:00 6,7 6,1 6,5 6,5 6,1 6,1 5,5 24 13 34 18 WSW 1029,1 1,8 0 0,0
20.03.2019 18:00:00 7,3 6,2 7,1 6,8 6,1 6,1 5,5 31 17 40 22 WSW 1028,8 5 0 0,0
20.03.2019 17:00:00 7,4 5,6 7,4 6,9 6,0 6,1 5,5 29 16 48 26 WSW 1028,7 6 0 0,0
20.03.2019 16:00:00 8,0 4,9 8,0 7,2 5,9 6,1 5,6 37 20 50 27 WSW 1028,6 10 0 0,0
20.03.2019 15:00:00 8,0 4,5 8,2 7,3 5,7 6,1 5,6 33 18 45 24 SW 1028,2 15 0 0,0
20.03.2019 14:00:00 7,7 4,2 8,0 7,4 5,5 6,1 5,7 30 16 41 22 WSW 1029,1 15 0 0,0
20.03.2019 13:00:00 7,7 3,8 8,2 7,7 5,1 6,1 5,6 34 18 39 21 SW 1029,3 18 0 0,0
20.03.2019 12:00:00 7,2 3,3 8,4 7,5 4,7 6,1 5,4 27 14 39 21 SW 1029,3 18 10 0,0
20.03.2019 11:00:00 6,5 2,4 7,5 6,3 4,4 6,1 5,1 31 17 37 20 SW 1029,4 20 1 0,0
20.03.2019 10:00:00 5,9 1,8 6,7 5,2 4,1 6,1 4,8 26 14 35 19 SW 1029,6 31 0 0,0
20.03.2019 09:00:00 4,8 1,2 5,8 4,4 3,9 6,1 4,6 26 14 32 17 SW 1029,6 39 23 0,0
20.03.2019 08:00:00 3,3 0,2 3,9 3,1 3,9 6,1 4,4 26 14 32 17 SW 1029,7 40 56 0,0

tt = temperature
td = dewpoint
tt 5cm = temperature 5cm
tt -5cm = temperature -5cm
tt -20cm = temperature -20cm
tt -100cm = temperature -100cm
tw = water temperature
ff = wind speed
fx = gusts
dd = wind direction
ppp = reduced air pressure
vv = visibility
sd = sunshine duration
rr = precipitation

Next stations